Location: Newark
(39.0622°N, 106.5590°E)
Time: 15:16:00
(UTC+00:00)

Vanguard 2 Rocket - Pass Details

Date: 24 January 2020
Orbit: 554 x 3326 km, 32.9° (Epoch: 16 February)

Event Time Altitude Azimuth Distance (km) Brightness Sun altitude
Rises 20:54:53 0° 216° (SW) 2,708 - -37.1°
Reaches altitude 10° 20:57:32 10° 195° (SSW) 1,872 - -36.6°
Maximum altitude 21:00:21 18° 151° (SSE) 1,563 - -36.1°
Exits shadow 21:01:42 16° 129° (SE) 1,743 8.7 -35.8°
Drops below altitude 10° 21:03:43 10° 108° (ESE) 2,278 9.6 -35.4°
Sets 21:07:24 0° 91° (E) 3,588 11.0 -34.7°
